EW3675 Weather Reports


Display with metric or nautical units.
time (UTC)temp
F
wind
direction
speed
MPH
gust
MPH
rain 1hr
in
rain 24hr
in
rain mn
in
humidity
%
barometer
mb
20220117101715 40 293 1.0 3.0 0.00 0.00 0.00 47 1017.5
20220117101215 41 293 2.0 3.0 0.00 0.00 0.00 46 1017.5
20220117100716 41 294 2.0 4.0 0.00 0.00 0.00 46 1017.4
20220117100215 41 315 2.0 4.0 0.00 0.00 0.00 46 1017.4
20220117095714 41 315 2.0 3.0 0.00 0.00 0.00 46 1017.5
20220117095216 41 303 2.0 3.0 0.00 0.00 0.00 46 1017.5
20220117094716 42 306 1.0 3.0 0.00 0.00 0.00 45 1017.5
20220117094214 42 305 0.0 2.0 0.00 0.00 0.00 45 1017.5
20220117093714 42 344 0.0 0.0 0.00 0.00 0.00 45 1017.4
20220117093216 42 344 0.0 1.0 0.00 0.00 0.00 44 1017.4
20220117092716 42 344 0.0 1.0 0.00 0.00 0.00 44 1017.3
20220117092214 42 355 0.0 2.0 0.00 0.00 0.00 44 1017.3
20220117091714 42 9 1.0 3.0 0.00 0.00 0.00 43 1017.3
20220117091217 42 14 1.0 3.0 0.00 0.00 0.00 44 1017.3
20220117090712 43 332 0.0 2.0 0.00 0.00 0.00 45 1017.2
20220117090207 43 304 0.0 0.0 0.00 0.00 0.00 43 1016.9
20220117085708 43 304 0.0 0.0 0.00 0.00 0.00 42 1016.9
20220117085206 44 304 0.0 2.0 0.00 0.00 0.00 42 1016.7
20220117084706 44 304 0.0 2.0 0.00 0.00 0.00 41 1016.7
20220117084206 44 304 0.0 2.0 0.00 0.00 0.00 41 1016.6
20220117083705 44 304 0.0 2.0 0.00 0.00 0.00 42 1016.6
20220117083208 44 304 0.0 2.0 0.00 0.00 0.00 41 1016.6
20220117082709 44 304 0.0 2.0 0.00 0.00 0.00 41 1016.6
20220117082207 43 303 0.0 2.0 0.00 0.00 0.00 41 1016.6
20220117081705 43 303 1.0 2.0 0.00 0.00 0.00 41 1016.7
20220117081208 43 303 1.0 2.0 0.00 0.00 0.00 41 1016.6
20220117080707 44 303 0.0 2.0 0.00 0.00 0.00 42 1016.6
20220117080206 44 302 0.0 1.0 0.00 0.00 0.00 42 1016.6
20220117075705 44 302 0.0 1.0 0.00 0.00 0.00 42 1016.6
20220117075207 44 302 0.0 3.0 0.00 0.00 0.00 41 1016.5
20220117074706 44 302 0.0 3.0 0.00 0.00 0.00 42 1016.5
20220117074207 43 302 1.0 3.0 0.00 0.00 0.00 42 1016.5
20220117073706 43 302 1.0 3.0 0.00 0.00 0.00 42 1016.5
20220117073208 43 302 1.0 2.0 0.00 0.00 0.00 43 1016.4
20220117072708 43 302 0.0 2.0 0.00 0.00 0.00 43 1016.4
20220117072206 43 302 0.0 1.0 0.00 0.00 0.00 43 1016.4
20220117071706 44 302 0.0 2.0 0.00 0.00 0.00 42 1016.3
20220117071206 44 302 0.0 2.0 0.00 0.00 0.00 42 1016.2
20220117070707 44 302 0.0 2.0 0.00 0.00 0.00 42 1016.2
20220117070206 44 302 0.0 4.0 0.00 0.00 0.00 42 1016.2
20220117065707 45 301 1.0 4.0 0.00 0.00 0.00 41 1016.2
20220117065207 46 263 1.0 4.0 0.00 0.00 0.00 41 1016.2
20220117064706 47 278 1.0 6.0 0.00 0.00 0.00 39 1016.2
20220117064209 47 245 1.0 6.0 0.00 0.00 0.00 39 1016.1
20220117063706 47 265 1.0 6.0 0.00 0.00 0.00 38 1016.1
20220117063206 47 298 2.0 7.0 0.00 0.00 0.00 36 1016.1
20220117062706 47 252 2.0 7.0 0.00 0.00 0.00 37 1016.1
20220117062206 47 250 3.0 7.0 0.00 0.00 0.00 37 1016.1
20220117061706 47 246 3.0 7.0 0.00 0.00 0.00 37 1016.1
20220117061206 47 242 3.0 8.0 0.00 0.00 0.00 38 1016.1
20220117060706 47 244 3.0 8.0 0.00 0.00 0.00 38 1016.1
20220117060206 47 247 2.0 7.0 0.00 0.00 0.00 38 1016.1
20220117055710 47 251 2.0 5.0 0.00 0.00 0.00 39 1016.1
20220117055209 47 243 2.0 5.0 0.00 0.00 0.00 39 1016.1
20220117054710 47 246 2.0 6.0 0.00 0.00 0.00 40 1016.1
20220117054208 46 240 3.0 6.0 0.00 0.00 0.00 41 1016.1
20220117053707 46 243 3.0 5.0 0.00 0.00 0.00 42 1016.1
20220117053209 45 243 2.0 5.0 0.00 0.00 0.00 43 1016.1
20220117052704 44 248 3.0 4.0 0.00 0.00 0.00 45 1016.2
20220117052205 42 250 3.0 5.0 0.00 0.00 0.00 48 1016.1
20220117051703 41 249 2.0 5.0 0.00 0.00 0.00 51 1016.1
20220117051203 40 243 1.0 3.0 0.00 0.00 0.00 53 1016.1
20220117050703 39 250 0.0 3.0 0.00 0.00 0.00 55 1016.1
20220117050204 39 214 0.0 2.0 0.00 0.00 0.00 58 1016.1
20220117045704 39 155 0.0 2.0 0.00 0.00 0.00 58 1016.1
20220117045206 39 155 0.0 2.0 0.00 0.00 0.00 57 1016.2
20220117044703 38 155 1.0 2.0 0.00 0.00 0.00 58 1016.2
20220117044202 38 155 1.0 2.0 0.00 0.00 0.00 57 1016.2
20220117043704 37 155 0.0 2.0 0.00 0.00 0.00 59 1016.2
20220117043201 37 155 0.0 1.0 0.00 0.00 0.00 60 1016.2
20220117042704 37 154 0.0 1.0 0.00 0.00 0.00 61 1016.3
20220117042204 37 154 0.0 0.0 0.00 0.00 0.00 61 1016.3
20220117041704 37 154 0.0 1.0 0.00 0.00 0.00 61 1016.2
20220117041203 37 154 0.0 1.0 0.00 0.00 0.00 61 1016.2
20220117040701 37 154 0.0 1.0 0.00 0.00 0.00 61 1016.2
20220117040201 37 154 0.0 1.0 0.00 0.00 0.00 61 1016.2
20220117035704 38 154 0.0 0.0 0.00 0.00 0.00 60 1016.2
20220117035202 38 154 0.0 0.0 0.00 0.00 0.00 59 1016.2
20220117034703 38 154 0.0 0.0 0.00 0.00 0.00 59 1016.2
20220117034203 39 154 0.0 0.0 0.00 0.00 0.00 58 1016.2
20220117033700 39 154 0.0 0.0 0.00 0.00 0.00 58 1016.2
20220117033202 40 154 0.0 0.0 0.00 0.00 0.00 57 1016.1
20220117032702 40 154 0.0 0.0 0.00 0.00 0.00 56 1016.1
20220117032159 41 154 0.0 0.0 0.00 0.00 0.00 55 1016.1
20220117031701 41 154 0.0 0.0 0.00 0.00 0.00 54 1016.1
20220117031156 42 154 0.0 1.0 0.00 0.00 0.00 53 1016.1
20220117030654 42 154 0.0 1.0 0.00 0.00 0.00 53 1016.1
20220117030152 42 154 0.0 1.0 0.00 0.00 0.00 53 1016.0
20220117025655 43 154 0.0 1.0 0.00 0.00 0.00 52 1016.0
20220117025154 43 154 0.0 1.0 0.00 0.00 0.00 52 1016.0
20220117024650 44 154 0.0 1.0 0.00 0.00 0.00 51 1016.0
20220117024148 44 154 0.0 1.0 0.00 0.00 0.00 50 1016.0
20220117023647 45 154 0.0 0.0 0.00 0.00 0.00 50 1016.0
20220117023144 45 154 0.0 0.0 0.00 0.00 0.00 48 1015.9
20220117022648 46 154 0.0 1.0 0.00 0.00 0.00 48 1015.9
20220117022144 46 154 0.0 1.0 0.00 0.00 0.00 49 1015.9
20220117021636 47 154 0.0 1.0 0.00 0.00 0.00 48 1015.9
20220117021133 47 154 1.0 2.0 0.00 0.00 0.00 47 1015.9
20220117020635 47 154 0.0 2.0 0.00 0.00 0.00 47 1015.8
20220117020132 47 154 0.0 1.0 0.00 0.00 0.00 47 1015.8
20220117015634 48 154 0.0 1.0 0.00 0.00 0.00 46 1015.7
20220117015131 48 154 0.0 0.0 0.00 0.00 0.00 45 1015.6
20220117014630 49 154 0.0 0.0 0.00 0.00 0.00 44 1015.5
20220117014128 49 154 0.0 1.0 0.00 0.00 0.00 43 1015.5
20220117013626 49 154 0.0 0.0 0.00 0.00 0.00 43 1015.4
20220117013121 50 154 0.0 0.0 0.00 0.00 0.00 42 1015.3
20220117012621 50 154 0.0 0.0 0.00 0.00 0.00 42 1015.2
20220117012119 51 154 0.0 1.0 0.00 0.00 0.00 41 1015.2
20220117011621 51 154 0.0 1.0 0.00 0.00 0.00 41 1015.1
20220117011115 51 154 0.0 1.0 0.00 0.00 0.00 40 1015.1
20220117010618 52 154 0.0 1.0 0.00 0.00 0.00 40 1015.1
20220117010118 52 154 0.0 0.0 0.00 0.00 0.00 39 1015.1
20220117005616 53 154 0.0 0.0 0.00 0.00 0.00 39 1015.2
20220117005112 54 154 0.0 0.0 0.00 0.00 0.00 39 1015.0
20220117004612 54 154 0.0 0.0 0.00 0.00 0.00 39 1014.8
20220117004108 55 154 0.0 1.0 0.00 0.00 0.00 38 1014.8
20220117003610 56 154 0.0 1.0 0.00 0.00 0.00 37 1014.8
20220117003106 56 154 0.0 1.0 0.00 0.00 0.00 34 1014.8
20220117002611 57 154 0.0 3.0 0.00 0.00 0.00 34 1014.8
20220117002107 57 154 0.0 3.0 0.00 0.00 0.00 33 1014.8
20220117001605 58 147 0.0 1.0 0.00 0.00 0.00 33 1014.7
20220117001106 58 147 1.0 3.0 0.00 0.00 0.00 32 1014.5
20220117000606 59 147 1.0 3.0 0.00 0.00 0.00 32 1014.1
20220117000105 59 147 1.0 3.0 0.00 0.00 0.00 31 1014.4
20220116235607 60 147 2.0 3.0 0.00 0.00 0.00 31 1014.6
20220116235106 60 146 2.0 3.0 0.00 0.00 0.00 30 1014.8
20220116234603 61 144 2.0 3.0 0.00 0.00 0.00 30 1014.7
20220116234106 61 143 2.0 3.0 0.00 0.00 0.00 29 1014.7
20220116233602 61 140 2.0 3.0 0.00 0.00 0.00 28 1014.7
20220116233059 61 140 2.0 3.0 0.00 0.00 0.00 28 1014.8
20220116232603 62 140 2.0 5.0 0.00 0.00 0.00 27 1015.0
20220116232101 62 144 2.0 5.0 0.00 0.00 0.00 27 1014.8
20220116231557 62 150 2.0 3.0 0.00 0.00 0.00 27 1014.8
20220116231058 62 150 2.0 3.0 0.00 0.00 0.00 26 1014.6
20220116230558 62 150 2.0 4.0 0.00 0.00 0.00 25 1014.6
20220116230059 62 149 2.0 6.0 0.00 0.00 0.00 25 1014.7
20220116225553 63 160 2.0 6.0 0.00 0.00 0.00 25 1014.8
20220116225049 63 142 3.0 7.0 0.00 0.00 0.00 24 1014.7
20220116224548 63 164 3.0 7.0 0.00 0.00 0.00 24 1014.7
20220116224052 64 141 3.0 6.0 0.00 0.00 0.00 24 1014.7
20220116223550 64 163 3.0 7.0 0.00 0.00 0.00 24 1014.8
20220116223051 64 159 4.0 7.0 0.00 0.00 0.00 23 1014.8
20220116222550 65 146 3.0 7.0 0.00 0.00 0.00 23 1014.8
20220116222048 65 140 3.0 7.0 0.00 0.00 0.00 22 1014.9
20220116221548 65 158 3.0 7.0 0.00 0.00 0.00 22 1014.9
20220116221049 65 167 3.0 7.0 0.00 0.00 0.00 22 1014.9
20220116220549 65 204 3.0 8.0 0.00 0.00 0.00 22 1014.9
20220116220052 65 143 2.0 8.0 0.00 0.00 0.00 22 1014.9
20220116215552 65 250 2.0 7.0 0.00 0.00 0.00 21 1015.0
20220116215047 65 257 2.0 7.0 0.00 0.00 0.00 21 1015.0
20220116214548 64 280 3.0 8.0 0.00 0.00 0.00 21 1015.0
20220116214049 64 284 3.0 8.0 0.00 0.00 0.00 21 1015.0
20220116213548 64 171 3.0 9.0 0.00 0.00 0.00 21 1015.1
20220116213051 64 243 3.0 9.0 0.00 0.00 0.00 21 1015.2
20220116212550 64 223 3.0 6.0 0.00 0.00 0.00 22 1015.2
20220116212048 64 242 3.0 6.0 0.00 0.00 0.00 21 1015.3
20220116211548 63 88 3.0 6.0 0.00 0.00 0.00 21 1015.4
20220116211048 63 171 4.0 9.0 0.00 0.00 0.00 21 1015.4
20220116210548 63 190 4.0 9.0 0.00 0.00 0.00 21 1015.5
20220116210047 63 239 4.0 9.0 0.00 0.00 0.00 21 1015.5
20220116205548 63 207 3.0 9.0 0.00 0.00 0.00 21 1015.6
20220116205050 62 219 3.0 9.0 0.00 0.00 0.00 22 1015.6
20220116204543 62 288 4.0 11.0 0.00 0.00 0.00 23 1015.7
20220116204043 61 261 6.0 12.0 0.00 0.00 0.00 22 1015.8
20220116203543 61 277 6.0 12.0 0.00 0.00 0.00 22 1015.8
20220116203045 61 269 5.0 13.0 0.00 0.00 0.00 22 1015.9
20220116202546 61 275 5.0 13.0 0.00 0.00 0.00 22 1016.0
20220116202047 60 215 5.0 11.0 0.00 0.00 0.00 23 1016.1
20220116201543 60 206 4.0 11.0 0.00 0.00 0.00 23 1016.1
20220116201043 60 284 4.0 11.0 0.00 0.00 0.00 23 1016.2
20220116200544 60 242 4.0 11.0 0.00 0.00 0.00 23 1016.3
20220116200045 59 273 4.0 11.0 0.00 0.00 0.00 23 1016.4
20220116195546 59 273 5.0 10.0 0.00 0.00 0.00 24 1016.5
20220116195043 59 0 5.0 10.0 0.00 0.00 0.00 23 1016.7
20220116194546 59 298 4.0 9.0 0.00 0.00 0.00 24 1016.8
20220116194044 58 263 3.0 8.0 0.00 0.00 0.00 24 1016.9
20220116193545 58 309 3.0 9.0 0.00 0.00 0.00 23 1017.0
20220116193045 58 310 4.0 9.0 0.00 0.00 0.00 23 1017.1
20220116192543 57 17 4.0 11.0 0.00 0.00 0.00 24 1017.2
20220116192043 57 348 4.0 11.0 0.00 0.00 0.00 24 1017.3
20220116191543 57 341 4.0 10.0 0.00 0.00 0.00 24 1017.4
20220116191044 56 282 5.0 10.0 0.00 0.00 0.00 24 1017.7
20220116190544 56 336 5.0 9.0 0.00 0.00 0.00 25 1017.8
20220116190044 56 323 4.0 9.0 0.00 0.00 0.00 25 1017.9
20220116185548 56 279 4.0 9.0 0.00 0.00 0.00 25 1018.2
20220116185045 55 266 4.0 9.0 0.00 0.00 0.00 26 1018.2
20220116184539 55 316 4.0 8.0 0.00 0.00 0.00 25 1018.3
20220116184040 55 316 4.0 10.0 0.00 0.00 0.00 25 1018.5
20220116183540 54 283 4.0 10.0 0.00 0.00 0.00 26 1018.7
20220116183039 54 247 4.0 10.0 0.00 0.00 0.00 25 1018.8
20220116182542 54 348 4.0 9.0 0.00 0.00 0.00 25 1018.9
20220116182041 53 294 5.0 10.0 0.00 0.00 0.00 26 1019.0
20220116181543 53 307 5.0 10.0 0.00 0.00 0.00 25 1019.1
20220116181040 53 329 4.0 8.0 0.00 0.00 0.00 27 1019.2
20220116180541 52 311 4.0 8.0 0.00 0.00 0.00 27 1019.3
20220116180042 52 342 4.0 10.0 0.00 0.00 0.00 27 1019.5
20220116175540 51 348 4.0 10.0 0.00 0.00 0.00 27 1019.5
20220116175041 51 253 5.0 10.0 0.00 0.00 0.00 27 1019.7
20220116174538 50 328 5.0 10.0 0.00 0.00 0.00 28 1019.9
20220116174041 50 302 5.0 9.0 0.00 0.00 0.00 29 1020.0
20220116173539 50 272 4.0 9.0 0.00 0.00 0.00 29 1020.2
20220116173041 49 279 4.0 9.0 0.00 0.00 0.00 30 1020.2
20220116172538 49 271 5.0 10.0 0.00 0.00 0.00 30 1020.3
20220116172039 49 250 6.0 11.0 0.00 0.00 0.00 29 1020.5
20220116171539 48 281 5.0 11.0 0.00 0.00 0.00 31 1020.5
20220116171041 48 267 5.0 12.0 0.00 0.00 0.00 32 1020.6
20220116170542 48 355 4.0 12.0 0.00 0.00 0.00 33 1020.6
20220116170043 48 330 5.0 12.0 0.00 0.00 0.00 33 1020.6
20220116165538 47 355 6.0 12.0 0.00 0.00 0.00 35 1020.6
20220116165040 47 273 4.0 13.0 0.00 0.00 0.00 34 1020.7
20220116164541 47 339 4.0 13.0 0.00 0.00 0.00 36 1020.8
20220116164040 46 329 5.0 12.0 0.00 0.00 0.00 37 1020.8
20220116163541 46 313 6.0 12.0 0.00 0.00 0.00 38 1020.7
20220116163042 45 327 6.0 12.0 0.00 0.00 0.00 38 1020.7
20220116162539 45 338 5.0 12.0 0.00 0.00 0.00 40 1020.8
20220116162041 44 5 5.0 10.0 0.00 0.00 0.00 40 1020.7
20220116161542 44 296 6.0 12.0 0.00 0.00 0.00 40 1020.7
20220116161039 43 333 7.0 12.0 0.00 0.00 0.00 40 1020.7
20220116160540 43 22 5.0 11.0 0.00 0.00 0.00 41 1020.7
20220116160039 43 331 5.0 10.0 0.00 0.00 0.00 42 1020.6
20220116155538 42 346 6.0 14.0 0.00 0.00 0.00 42 1020.7
20220116155033 42 323 7.0 14.0 0.00 0.00 0.00 43 1020.7
20220116154534 41 10 7.0 14.0 0.00 0.00 0.00 43 1020.7
20220116154032 41 341 6.0 14.0 0.00 0.00 0.00 43 1020.8
20220116153533 41 296 5.0 14.0 0.00 0.00 0.00 44 1020.7
20220116153031 40 327 6.0 14.0 0.00 0.00 0.00 45 1020.7
20220116152530 40 308 7.0 14.0 0.00 0.00 0.00 45 1020.7
20220116152030 40 15 6.0 11.0 0.00 0.00 0.00 45 1020.7
20220116151529 39 330 6.0 13.0 0.00 0.00 0.00 46 1020.6
20220116151028 38 267 6.0 13.0 0.00 0.00 0.00 47 1020.8
20220116150529 38 349 5.0 11.0 0.00 0.00 0.00 48 1020.9
20220116150023 38 314 4.0 11.0 0.00 0.00 0.00 49 1020.8
20220116145520 37 355 4.0 10.0 0.00 0.00 0.00 51 1020.8
20220116145019 36 332 4.0 10.0 0.00 0.00 0.00 51 1020.8
20220116144519 36 315 4.0 10.0 0.00 0.00 0.00 52 1020.9
20220116144015 35 321 4.0 10.0 0.00 0.00 0.00 53 1020.9
20220116143514 35 328 4.0 10.0 0.00 0.00 0.00 54 1020.8
20220116143013 35 294 4.0 13.0 0.00 0.00 0.00 54 1020.7
20220116142513 34 11 4.0 13.0 0.00 0.00 0.00 54 1020.7
20220116142014 34 25 4.0 13.0 0.00 0.00 0.00 54 1020.7
20220116141512 34 296 4.0 15.0 0.00 0.00 0.00 55 1020.5
20220116141010 34 311 4.0 15.0 0.00 0.00 0.00 55 1020.5
20220116140510 33 328 5.0 15.0 0.00 0.00 0.00 56 1020.5
20220116140011 33 312 5.0 15.0 0.00 0.00 0.00 56 1020.5
20220116135510 33 296 5.0 11.0 0.00 0.00 0.00 57 1020.5
20220116135010 33 261 5.0 11.0 0.00 0.00 0.00 57 1020.6
20220116134509 33 311 4.0 13.0 0.00 0.00 0.00 57 1020.5
20220116134007 33 300 5.0 13.0 0.00 0.00 0.00 58 1020.4
20220116133507 32 290 5.0 13.0 0.00 0.00 0.00 58 1020.4
20220116133005 32 281 5.0 13.0 0.00 0.00 0.00 58 1020.3
20220116132506 32 261 5.0 11.0 0.00 0.00 0.00 58 1020.3
20220116132005 33 300 4.0 8.0 0.00 0.00 0.00 58 1020.2
20220116131505 33 281 4.0 13.0 0.00 0.00 0.00 58 1020.2
20220116131000 33 298 5.0 13.0 0.00 0.00 0.00 58 1020.2
20220116130458 33 321 6.0 13.0 0.00 0.00 0.00 58 1020.1
20220116125958 33 290 5.0 13.0 0.00 0.00 0.00 59 1019.9
20220116125458 33 306 4.0 11.0 0.00 0.00 0.00 59 1020.0
20220116124959 33 280 4.0 9.0 0.00 0.00 0.00 58 1020.0
20220116124459 33 324 5.0 11.0 0.00 0.00 0.00 58 1020.0
20220116123956 33 296 4.0 11.0 0.00 0.00 0.00 58 1019.9
20220116123454 33 290 5.0 13.0 0.00 0.00 0.00 57 1020.0
20220116122954 33 306 6.0 13.0 0.00 0.00 0.00 57 1020.0
20220116122455 33 279 6.0 13.0 0.00 0.00 0.00 57 1019.9
20220116121954 33 280 7.0 13.0 0.00 0.00 0.00 57 1019.8
20220116121449 33 263 7.0 14.0 0.00 0.00 0.00 57 1019.7
20220116120950 34 275 8.0 14.0 0.00 0.00 0.00 57 1019.6
20220116120449 34 288 8.0 14.0 0.00 0.00 0.00 56 1019.4
20220116115950 34 286 7.0 14.0 0.00 0.00 0.00 56 1019.5
20220116115451 34 306 7.0 13.0 0.00 0.00 0.00 56 1019.4
20220116114949 34 279 7.0 13.0 0.00 0.00 0.00 56 1019.3
20220116114446 34 284 7.0 12.0 0.00 0.00 0.00 56 1019.3
20220116113945 34 295 7.0 13.0 0.00 0.00 0.00 56 1019.2
20220116113445 34 288 7.0 13.0 0.00 0.00 0.00 57 1019.2
20220116112942 34 288 7.0 13.0 0.00 0.00 0.00 57 1019.3
20220116112442 34 288 7.0 13.0 0.00 0.00 0.00 57 1019.4
20220116111941 34 301 7.0 13.0 0.00 0.00 0.00 57 1019.6
20220116111442 34 288 6.0 13.0 0.00 0.00 0.00 57 1019.7
20220116110943 34 256 7.0 11.0 0.00 0.00 0.00 57 1019.7
20220116110445 34 291 7.0 11.0 0.00 0.00 0.00 57 1019.7
20220116105944 34 284 6.0 13.0 0.00 0.00 0.00 57 1019.6
20220116105444 34 276 7.0 13.0 0.00 0.00 0.00 57 1019.7
20220116104942 34 292 7.0 13.0 0.00 0.00 0.00 57 1019.8
20220116104445 34 275 7.0 13.0 0.00 0.00 0.00 57 1019.8
20220116103942 34 286 6.0 10.0 0.00 0.00 0.00 57 1019.8
20220116103446 34 252 6.0 10.0 0.00 0.00 0.00 57 1019.7
20220116102947 35 277 7.0 11.0 0.00 0.00 0.00 58 1019.7
20220116102447 35 275 6.0 11.0 0.00 0.00 0.00 58 1019.7
20220116101942 35 275 6.0 10.0 0.00 0.00 0.00 58 1019.8